Location: Unspecified
(0.0000°N, 0.0000°E)
Time: 12:22:29
(UTC+02:00)

Tiangong 1 - Visible Passes

Search period start: 01 October 2016 00:00
Search period end: 11 October 2016 00:00
Orbit: 358 x 378 km, 42.8° (Epoch: 01 October)

Date Brightness Start Highest point End Pass type
(mag) Time Alt. Az. Time Alt. Az. Time Alt. Az.
05 Oct 1.4 20:56:42 10° SSW 20:59:29 46° SSE 20:59:29 46° SSE visible
06 Oct 3.6 21:28:29 10° W 21:30:12 19° WNW 21:30:12 19° WNW visible
07 Oct 1.1 20:22:40 10° SW 20:25:44 76° NW 20:28:45 10° NE visible
08 Oct 4.1 20:55:53 10° WNW 20:56:46 11° NW 20:57:39 10° NNW visible
09 Oct 3.8 06:46:02 10° N 06:47:52 15° NE 06:49:42 10° E visible
10 Oct 0.9 07:15:49 10° NW 07:18:48 70° SW 07:21:49 10° SE visible
